Location: Lamoine Observatory
(44.4551°N, 68.3470°W)
Time: 23:54:59
(UTC-04:00)

Daily predictions for brighter satellites

Satellite Brightness Start Highest point End
(mag) Time Altitude Azimuth Time Altitude Azimuth Time Altitude Azimuth
SL-8 Rocket 4.0 18:03:32 10° S 18:09:37 63° E 18:15:46 10° NNE
Lacrosse 5 rocket 2.7 18:07:12 10° W 18:11:26 38° NNW 18:15:29 10° NE
Meteor 1-16 Rocket 4.1 18:06:51 10° S 18:12:04 62° E 18:17:21 10° NNE
Cosmos 1624 Rocket 4.0 18:07:12 10° NNW 18:12:26 75° ENE 18:17:40 10° SSE
Atlas Centaur 2 3.9 18:09:36 10° SSW 18:12:28 16° S 18:15:42 10° SE
CORIOLIS 4.3 18:07:33 10° SSE 18:12:57 86° WSW 18:18:24 10° NNW
Cosmos 1328 3.7 18:11:01 10° N 18:15:01 74° E 18:18:57 10° SSE
Cosmos 1371 Rocket 4.2 18:09:39 10° NNW 18:15:03 87° WSW 18:20:25 10° SSE
SMAP 3.6 18:10:31 10° S 18:15:08 68° WSW 18:19:48 10° NNW
FENGYUN 3A 4.3 18:10:55 10° SE 18:15:43 34° ENE 18:20:32 10° N
Gbstr 26 Del rocket 4.2 18:13:41 10° WNW 18:18:08 39° NNE 18:23:33 10° E
COSMO-SKYMED 1 2.8 18:19:31 10° NNE 18:23:45 47° E 18:27:56 10° S
CZ-4 R/B 4.4 18:20:11 10° SSE 18:24:19 80° ENE 18:28:29 10° N
Cosmos 1484 Rocket 3.8 18:21:07 10° S 18:24:45 49° W 18:28:22 10° NNW
Meteor 2-15 Rocket 4.5 18:19:08 10° N 18:25:15 87° E 18:31:23 10° S
Landsat 4 4.1 18:24:16 10° N 18:27:59 66° WNW 18:31:40 10° SSW
Cosmos 2219 Rocket 3.6 18:24:51 10° N 18:28:39 18° NE 18:32:03 11° E
MTI 3.8 18:26:38 10° NNE 18:29:51 85° WNW 18:33:03 10° SSW
FREGAT/IRIS 4.3 18:28:27 10° ESE 18:30:12 15° ENE 18:32:03 10° NNE
Cosmos 1703 3.5 18:26:43 10° N 18:30:32 45° ENE 18:34:18 10° SSE
Cosmos 1408 Rocket 4.2 18:26:24 10° NNW 18:30:48 64° W 18:35:12 10° S
Cosmos 2218 Rocket 3.9 18:25:21 10° S 18:31:28 77° E 18:37:38 10° N
ISS -1.0 18:29:09 10° W 18:31:28 18° SW 18:33:47 10° S
MOS 1 4.3 18:29:27 10° SSE 18:35:06 84° ENE 18:40:50 10° NNW
ERS-2 3.7 18:35:41 10° S 18:39:10 41° W 18:42:42 10° NNW
SL-16 R/B 3.0 18:34:44 10° NNW 18:40:17 57° WSW 18:45:49 10° S
Cosmos 1727 Rocket 4.0 18:34:26 10° N 18:40:49 72° E 18:47:09 10° SSE
Meteor 1-28 Rocket 4.1 18:37:54 10° N 18:41:37 54° WNW 18:45:18 10° SSW
CZ-4 R/B 3.0 18:37:54 10° S 18:41:53 40° W 18:45:51 10° NNW
Cosmos 1339 Rocket 4.5 18:35:40 10° N 18:42:04 76° E 18:48:18 10° SSE
Cosmos 1400 Rocket 2.7 18:39:05 10° N 18:43:10 82° E 18:47:10 10° SSE
SL-8 R/B 4.2 18:40:21 10° SW 18:44:55 43° SE 18:48:19 17° E
YAOGAN 1 3.7 18:45:46 10° S 18:49:56 48° W 18:54:10 10° NNW
Cosmos 1908 3.6 18:48:00 10° SSE 18:51:40 39° E 18:55:20 10° NNE
SPOT 3 Rocket 3.7 18:50:51 10° S 18:56:02 78° WSW 19:01:17 10° NNW
Cosmos 1726 4.4 18:54:27 10° SE 18:54:29 10° SE 18:54:29 10° SE
GP-B 3.5 18:53:10 10° N 18:57:36 66° W 19:01:59 10° SSW
Cosmos 2237 Rocket 3.7 18:54:23 10° N 18:58:09 18° NE 18:59:35 16° ENE
H-2A R/B 3.2 18:56:17 10° SE 18:59:53 39° ENE 19:03:33 10° N
CZ-4C R/B 3.2 18:56:10 10° SSE 19:00:05 22° ESE 19:01:01 21° E
DMSP B5D1-3 4.4 18:56:22 10° NNE 19:01:30 71° ESE 19:06:37 10° S
HJ-1C 4.3 19:01:21 27° ENE 19:01:32 27° ENE 19:04:31 10° N
SL-16 R/B 4.2 19:05:26 10° NNE 19:06:22 10° NE 19:07:10 10° NE
USA 267 3.8 19:05:42 20° ENE 19:09:35 36° SE 19:15:28 10° SSW
ALOS 2.4 19:05:26 10° S 19:10:05 80° WSW 19:14:48 10° NNW
Cosmos 2098 Rocket 3.6 19:06:48 10° SSE 19:10:50 42° E 19:15:56 10° NNE
SKYMED 2 4.4 19:07:34 10° N 19:11:48 52° WNW 19:16:01 10° SSW
Cosmos 2151 3.6 19:09:02 10° NNW 19:13:15 57° W 19:17:25 10° S
CZ-2D R/B 4.4 19:16:41 26° NE 19:16:41 26° NE 19:19:18 10° N
NOAA 12 4.5 19:11:14 10° S 19:16:30 68° WSW 19:21:49 10° NNW
Cosmos 1452 Rocket 3.6 19:12:40 10° NNW 19:17:56 78° WSW 19:23:11 10° SSE
SL-24 R/B - RUBIN 2 3.9 19:14:17 10° NW 19:19:12 72° WSW 19:22:54 15° SSE
COSMOS 2428 2.7 19:14:01 10° NNW 19:19:39 59° ENE 19:23:13 23° SE
Geosat FO 4.5 19:20:55 32° SE 19:22:28 77° ENE 19:26:06 10° NNW
Cosmos 2333 Rocket 2.9 19:17:46 10° NNW 19:23:02 35° NE 19:24:25 31° E
Cosmos 2360 Rocket 2.7 19:17:41 10° NNW 19:23:16 62° WSW 19:28:50 10° S
BREEZE-M DEB (TANK) 2.3 19:22:12 10° WSW 19:23:53 48° WNW 19:23:53 48° WNW
Cosmos 1626 4.4 19:21:56 10° NNW 19:25:10 27° W 19:28:22 10° SSW
Cosmos 1315 Rocket 3.2 19:21:15 10° NNW 19:25:17 65° W 19:29:20 10° S
Abrixas rocket 2.9 19:22:57 10° W 19:26:09 44° N 19:26:39 40° NNE
Cosmos 1833 4.4 19:21:43 10° SSW 19:27:24 71° WNW 19:33:03 10° NNE
Cosmos 2219 3.4 19:26:12 10° S 19:31:40 46° ESE 19:34:36 25° NE
FengYun 1-2 T 4.2 19:28:27 10° SSE 19:33:57 89° WSW 19:39:28 10° NNW
Spot 2 Rocket 4.1 19:34:18 36° ENE 19:34:18 36° ENE 19:38:42 10° N
MOS 1-B Rocket 4.0 19:31:49 30° SE 19:34:23 52° ENE 19:40:13 10° N
Cosmos 2221 2.5 19:30:11 10° S 19:34:29 80° W 19:38:52 10° N
DELTA 2 R/B (1) 4.2 19:29:14 10° W 19:34:33 46° SSW 19:36:42 31° SE
Resurs 01 Rocket 2.4 19:36:11 34° NE 19:36:11 34° NE 19:39:24 10° N
CSL-04 DEB 4.3 19:40:02 40° SSE 19:41:30 86° ENE 19:45:35 10° NNW
Aureole 2 Rocket 3.6 19:38:13 10° N 19:40:50 36° NNE 19:40:50 36° NNE
RESURS DK-1 3.9 19:39:16 10° NW 19:43:04 36° WSW 19:46:50 10° S
Cosmos 921 Rocket 4.1 19:38:52 10° NNW 19:43:09 46° WSW 19:47:21 10° S
USA 234 3.8 19:43:40 33° ENE 19:45:55 43° NNE 19:52:01 10° NW
Cosmos 1535 Rocket 4.3 19:39:57 10° S 19:46:04 78° E 19:52:11 10° N
Cosmos 44 3.4 19:43:36 10° SSW 19:46:57 47° S 19:46:57 47° S
Resurs 1-3 4.4 19:52:18 37° NNE 19:52:18 37° NNE 19:55:13 10° N
SJ-6B 3.0 19:50:20 47° SSW 19:51:12 64° WSW 19:54:56 10° NNW
Lacrosse 5 rocket 3.6 19:48:52 10° NW 19:51:39 16° N 19:52:59 14° N
Iridium 4 Rocket 4.4 19:53:26 10° SSW 19:58:48 55° W 20:04:32 10° N
Thor Agena Rocket 4.2 19:54:03 10° N 19:59:03 54° WNW 20:03:57 10° SW
Cosmos 1048 Rocket 4.0 19:54:49 10° SSW 19:59:57 79° WNW 20:05:06 10° NNE
Atlas Centaur 2 4.0 19:57:02 10° SW 20:00:33 17° S 20:01:19 17° S
Cosmos 44 Rocket 3.3 19:58:01 10° SSW 20:01:59 62° SSW 20:01:59 62° SSW
NOSS 0 Rocket 3.8 19:58:14 10° NNW 20:04:24 65° ENE 20:04:53 62° E
Gbstr 26 Del rocket 3.6 20:00:24 10° WNW 20:05:40 83° NNE 20:06:21 70° E
Envisat 3.1 20:09:18 64° NNE 20:09:18 64° NNE 20:13:43 10° N
Cosmos 2219 Rocket 2.0 20:07:44 10° NNW 20:13:22 87° WSW 20:13:48 77° S
Sich 1 3.5 20:09:30 10° NNW 20:13:23 58° WNW 20:13:23 58° WNW
Cosmos 1934 Rocket 4.4 20:18:55 10° SSW 20:25:13 64° W 20:31:34 10° N
SL-8 R/B 4.4 20:22:33 10° W 20:26:18 51° WNW 20:26:18 51° WNW
Cosmos 2237 Rocket 2.9 20:37:19 10° NNW 20:41:26 49° NNW 20:41:26 49° NNW
CZ-4C R/B 3.0 20:42:40 10° SW 20:46:18 43° WSW 20:46:18 43° WSW
Cosmos 1605 Rocket 4.4 20:45:50 10° SSW 20:51:50 57° WNW 20:57:50 10° N
SL-16 R/B 3.8 20:46:32 10° NNW 20:49:02 25° N 20:49:02 25° N
USA 267 3.3 20:53:05 73° NW 20:53:05 73° NW 20:59:24 10° WSW
Cosmos 2333 Rocket 3.5 21:02:02 10° NW 21:06:26 37° W 21:06:26 37° W
Resurs 01 Rocket 4.3 21:13:47 17° WNW 21:13:47 17° WNW 21:15:19 10° NW
USA 234 4.2 21:31:01 43° WNW 21:31:01 43° WNW 21:35:14 10° NW
